Location: Caltech
(34.1382°N, 118.1253°W)
Time: 21:37:57
(UTC-07:00)

Sapphire - Visible Passes

Search period start: 28 July 2014 00:00
Search period end: 07 August 2014 00:00
Orbit: 787 x 795 km, 67.1° (Epoch: 27 July)

Date Brightness Start Highest point End Pass type
(mag) Time Alt. Az. Time Alt. Az. Time Alt. Az.
28 Jul ? 01:42:53 31° N 01:42:53 31° N 01:45:58 10° NNE visible
29 Jul ? 01:13:04 29° NNE 01:13:04 29° NNE 01:15:40 10° NNE visible
30 Jul ? 00:43:12 24° NNE 00:43:12 24° NNE 00:45:17 10° NNE visible
30 Jul ? 02:23:55 12° NW 02:23:59 12° NW 02:26:08 10° NNW visible
31 Jul ? 00:13:17 19° NE 00:13:17 19° NE 00:14:48 10° NNE visible
31 Jul ? 01:54:01 16° NW 01:54:01 16° NW 01:56:43 10° NNW visible
31 Jul ? 23:43:20 15° NE 23:43:20 15° NE 23:44:13 10° NE visible
01 Aug ? 01:24:03 20° NNW 01:24:03 20° NNW 01:26:53 10° N visible
01 Aug ? 23:13:20 11° NE 23:13:20 11° NE 23:13:29 10° NE visible
02 Aug ? 00:54:03 24° NNW 00:54:03 24° NNW 00:56:51 10° N visible
03 Aug ? 00:23:59 27° N 00:23:59 27° N 00:26:42 10° NNE visible
03 Aug ? 23:53:50 28° N 23:53:50 28° N 23:56:26 10° NNE visible
04 Aug ? 23:23:36 28° NNE 23:23:36 28° NNE 23:26:05 10° NNE visible
05 Aug ? 01:04:18 11° NW 01:04:53 11° NW 01:06:19 10° NNW visible
05 Aug ? 22:53:15 27° NE 22:53:15 27° NE 22:55:38 10° NNE visible
06 Aug ? 00:33:56 15° NW 00:34:11 15° NW 00:37:15 10° NNW visible
06 Aug ? 22:22:44 25° NE 22:22:44 25° NE 22:25:05 10° NE visible
